User: anonymous   Login
Location: NJAA Observatory
(40.6819°N, 74.8979°W)
Time: 20:27:20
(UTC-04:00)
Language:

Landsat 5 - Orbit

View from above orbital plane
View from above orbital plane
View from above satellite
View from above satellite

Ground track
Ground track

The orbit data is extracted from the following two-line orbital elements,

1 14780U 84021A   18114.84856457  .00000092  00000-0  14786-4 0  9998
2 14780  98.0658 238.4151 0089684 222.7491 136.6728 14.91706272822334
Epoch (UTC): 24 April 2018 20:21:55
Eccentricity: 0.0089684
inclination: 98.0658°
perigee height: 530 km
apogee height: 655 km
right ascension of ascending node: 238.4151°
argument of perigee: 222.7491°
revolutions per day: 14.91706272
mean anomaly at epoch: 136.6728°
orbit number at epoch: 82233

The dashed part of the orbit path shows where the satellite is in the earth's shadow,  

DLR